This is the latest recevied weather packets stored in our database for station/object EA8BQU-10. If no packets are shown the sender has not sent any weather packets the latest 10 day(s).
| Time | Temp. | Humidity | Pressure | Rain* | Wind** | Luminosity | Snow |
|---|---|---|---|---|---|---|---|
| 1788285441 | 26.11° C | 100% | 1018.7 hPa | - | - | - | - |
| 1788284540 | 26.11° C | 100% | 1018.6 hPa | - | - | - | - |
| 1788283639 | 26.67° C | 100% | 1018.5 hPa | - | - | - | - |
| 1788282749 | 27.22° C | 100% | 1018.3 hPa | - | - | - | - |
| 1788281849 | 27.22° C | 100% | 1018.2 hPa | - | - | - | - |
| 1788280949 | 27.78° C | 100% | 1018.3 hPa | - | - | - | - |
| 1788280044 | 27.22° C | 100% | 1018.5 hPa | - | - | - | - |
| 1788279144 | 27.22° C | 100% | 1018.7 hPa | - | - | - | - |
| 1788278244 | 27.22° C | 100% | 1018.6 hPa | - | - | - | - |
| 1788277343 | 27.22° C | 100% | 1018.7 hPa | - | - | - | - |
| 1788276477 | 27.22° C | 100% | 1018.8 hPa | - | - | - | - |
| 1788276443 | 27.22° C | 100% | 1018.8 hPa | - | - | - | - |
| 1788275543 | 26.67° C | 100% | 1018.8 hPa | - | - | - | - |
| 1788274643 | 27.22° C | 100% | 1019 hPa | - | - | - | - |
| 1788273947 | 27.22° C | 100% | 1019.1 hPa | - | - | - | - |
| 1788273742 | 27.22° C | 100% | 1019.1 hPa | - | - | - | - |
| 1788272842 | 26.67° C | 100% | 1019.3 hPa | - | - | - | - |
| 1788271941 | 26.67° C | 100% | 1019.1 hPa | - | - | - | - |
| 1788271041 | 26.67° C | 100% | 1019.4 hPa | - | - | - | - |
| 1788270141 | 26.67° C | 100% | 1019.6 hPa | - | - | - | - |
| 1788269241 | 26.11° C | 100% | 1019.6 hPa | - | - | - | - |
| 1788268341 | 26.11° C | 100% | 1019.6 hPa | - | - | - | - |
| 1788267441 | 26.11° C | 100% | 1019.8 hPa | - | - | - | - |
| 1788266757 | 25.56° C | 100% | 1019.9 hPa | - | - | - | - |
| 1788266541 | 25.56° C | 100% | 1019.9 hPa | - | - | - | - |
* Rain since midnight (hover to see other rain measurements)
** Current wind speed in m/s (hover to see current wind gust speed)